COSMOS 1275 DEB, 42107

Orbit data source: Space-Track

COSMOS 1275 DEB, 42107 is space debris in LEO originally from a launch on Thu, 04 Jun 1981 UTC launched from the Plesetsk Missile And Space Complex (PKMTR). Debris objects in space refer to the collection of defunct objects orbiting the Earth. Examples of debris include non-operational satellites, rocket bodies, and fragments generated from explosions, collisions, or faulty payload assembly.

Loading next visibility...
Identifier
42107, 1981-053PT
Orbit
LEO
Country
Flag of CISCIS
Related business
Manufacturer
Unknown
Mission
Spacecraft
Bus & Motor
Unknown
Mass
Unknown
Launch date (UTC)
1981-06-04 (45 years ago)
Launch vehicle
Unknown
Launch site
Plesetsk Missile And Space Complex (PKMTR)
Object type
Payload
Rocket body
Debris
Shape & HBR
Unknown shape, 0.1 m
Radar Cross Section
Small (<0.1 m²)

Expand to show TLE details & history
Last TLE update: 1 week ago

TLE from 1 week ago
0 COSMOS 1275 DEB
1 42107U 81053PT  26166.59081279  .00001905  00000-0  10380-2 0  9992
2 42107  82.8057 116.4014 0049662  28.6974 331.6918 14.11083163642625
Epoch: 2026-06-15T14:10Z
TLE epoch observation values (Epoch: 2026-06-15T14:10:46.225Z)
Latitude
0.00003°
Longitude
-0.16621°
Altitude
827.02 km
Speed
7.456 km/s
True Right ascension
07h 45m 36s
True Declination
0° 00' 00"
Sunlit
Object was in daylight at epoch
Visualization orbit readout
Latitude
Unknown
Longitude
Unknown
Altitude
Unknown
Speed
Unknown
Apparent Right ascension
Unknown
Apparent Declination
Unknown
Sunlit
N/A
Visualization observer readout
Local Sidereal Time
21:54:31
Azimuth
Unknown
Elevation
Unknown
Doppler factor
Unknown
Orbital elements
Apogee altitude
888.682 km
Perigee altitude
816.862 km
Semi-major axis
7,230.909 km
Eccentricity
0.00497
Inclination
82.8057°
RAAN
116.4014°
Arg. of periapsis
28.6974°
True anomaly
331.42045°
Mean anomaly
331.6918°
Eccentric anomaly
331.55627°
Mean motion
3.52983 °/min
Orbital period
101.99 mins
BSTAR
0.001038
Loading maneuver chart data...
Computing Atmospheric mass density...

Documentation

Showing up to 5 results
|